Location: San Pelegr�n
(42.1868°N, 0.0079°E)
Time: 18:22:54
(UTC+00:00)

Cosmos 2082 - Pass Details

Date: 24 January 2020
Orbit: 833 x 856 km, 71.0° (Epoch: 25 February)

Event Time Altitude Azimuth Distance (km) Brightness Sun altitude
Rises 17:28:13 0° 175° (S) 3,363 7.1 -5.1°
Reaches altitude 10° 17:30:51 10° 166° (SSE) 2,434 6.2 -5.5°
Maximum altitude 17:35:46 33° 104° (ESE) 1,380 4.4 -6.4°
Drops below altitude 10° 17:40:43 10° 42° (NE) 2,457 5.6 -7.2°
Enters shadow 17:42:35 - 36° (NE) 3,112 6.2 -7.5°
